User: anonymous   Login
Location: Unspecified
(0.0000°N, 0.0000°E)
Time: 09:27:35
(UTC+00:00)
Language:

Saudisat 1A - Orbit

View from above orbital plane
View from above orbital plane
View from above satellite
View from above satellite

Ground track
Ground track

The orbit data is extracted from the following two-line orbital elements,

1 26546U 00057B   21170.86922439  .00000087  00000-0  24435-4 0  9996
2 26546  64.5554  71.5679 0009322 227.8726 132.1593 14.91214372124802
Epoch (UTC): 19 June 2021 20:51:40
Eccentricity: 0.0009322
inclination: 64.5554°
perigee height: 587 km
apogee height: 600 km
right ascension of ascending node: 71.5679°
argument of perigee: 227.8726°
revolutions per day: 14.91214372
mean anomaly at epoch: 132.1593°
orbit number at epoch: 12480

The dashed part of the orbit path shows where the satellite is in the earth's shadow,  

DLR